Stevens Point, WI

11:21 PM CST on December 11, 2019 (GMT -0600)
Stevens Point Municipal

Weather History for KSTE - November, 2019

Change the Weather History Date:

Saturday, November 16, 2019

  Actual Average Record
Temperature  
Mean Temperature 28 °F -  
Max Temperature 36 °F 41 °F 70 °F (1953)
Min Temperature 19 °F 25 °F 7 °F (1955)
Degree Days  
Heating Degree Days 38    
Moisture  
Dew Point 25 °F    
Average Humidity 85    
Maximum Humidity 100    
Minimum Humidity 67    
Precipitation  
Precipitation 0.00 in - - ()
Sea Level Pressure  
Sea Level Pressure 30.29 in    
Wind  
Wind Speed 6 mph (SE)    
Max Wind Speed 13 mph    
Max Gust Speed 21 mph    
Visibility 10 miles    
Events      
Averages and records for this station are not official NWS values.
T = Trace of Precipitation, MM = Missing Value Source: NWS Daily Summary

Daily Weather History Graph

Daily Weather History Graph

Search for Another Location

Airport or City:

Astronomy

Nov. 16, 2019 Rise Set
Actual Time 6:55 AM CST 4:29 PM CST
Civil Twilight 6:24 AM CST 5:01 PM CST
Nautical Twilight 5:48 AM CST 5:36 PM CST
Astronomical Twilight 5:14 AM CST 6:10 PM CST
Moon 7:58 PM CST (11/16) 10:53 AM CST (11/16)
Length of Visible Light 10h 37m
Length of Day
9h 34m
Waning Gibbous, 82% of the Moon is Illuminated
Nov 16
Waning Gibbous
Nov 19
Last Quarter
Nov 26
New
Dec 4
First Quarter
Dec 11
Full

Hourly Weather History & Observations

Time (CST) Temp. Windchill Dew Point Humidity Pressure Visibility Wind Dir Wind Speed Gust Speed Precip Events Conditions
12:15 AM 23.4 °F 16.2 °F 18.7 °F 82% 30.42 in 10.0 mi ESE 5.8 mph - N/A   Clear
12:35 AM 23.0 °F 17.0 °F 19.4 °F 86% 30.42 in 10.0 mi East 4.6 mph - N/A   Clear
12:55 AM 23.0 °F 15.8 °F 20.5 °F 90% 30.42 in 10.0 mi East 5.8 mph - N/A   Clear
1:15 AM 22.5 °F 15.1 °F 21.0 °F 94% 30.42 in 10.0 mi ESE 5.8 mph - N/A   Clear
1:35 AM 22.5 °F 16.3 °F 21.6 °F 96% 30.42 in 10.0 mi East 4.6 mph - N/A   Clear
1:55 AM 22.1 °F 15.9 °F 21.6 °F 98% 30.41 in 10.0 mi East 4.6 mph - N/A   Clear
2:15 AM 21.9 °F 15.7 °F 21.6 °F 99% 30.42 in 10.0 mi East 4.6 mph - N/A   Clear
2:35 AM 21.2 °F 13.6 °F 21.2 °F 100% 30.41 in 10.0 mi East 5.8 mph - N/A   Clear
2:55 AM 21.4 °F 15.1 °F 21.4 °F 100% 30.41 in 10.0 mi East 4.6 mph - N/A   Clear
3:15 AM 21.6 °F 15.3 °F 21.6 °F 100% 30.41 in 10.0 mi East 4.6 mph - N/A   Clear
3:35 AM 22.1 °F 14.7 °F 22.1 °F 100% 30.41 in 10.0 mi East 5.8 mph - N/A   Clear
3:55 AM 22.1 °F 15.9 °F 22.1 °F 100% 30.41 in 10.0 mi East 4.6 mph - N/A   Clear
4:15 AM 22.5 °F 15.1 °F 22.1 °F 99% 30.40 in 10.0 mi East 5.8 mph - N/A   Clear
4:35 AM 22.5 °F 16.3 °F 22.3 °F 99% 30.40 in 10.0 mi East 4.6 mph - N/A   Clear
4:55 AM 22.3 °F 14.9 °F 22.1 °F 99% 30.40 in 10.0 mi East 5.8 mph - N/A   Clear
5:15 AM 22.1 °F 17.4 °F 21.7 °F 99% 30.40 in 10.0 mi ESE 3.5 mph - N/A   Clear
5:35 AM 21.0 °F 16.2 °F 21.0 °F 100% 30.40 in 10.0 mi East 3.5 mph - N/A   Clear
5:55 AM 20.7 °F - 20.7 °F 100% 30.40 in 10.0 mi Calm Calm - N/A   Clear
6:15 AM 20.7 °F - 20.7 °F 100% 30.40 in 10.0 mi Calm Calm - N/A   Clear
6:35 AM 20.7 °F 14.2 °F 20.7 °F 100% 30.40 in 10.0 mi East 4.6 mph - N/A   Clear
6:55 AM 19.9 °F 13.4 °F 19.9 °F 100% 30.40 in 10.0 mi East 4.6 mph - N/A   Clear
7:15 AM 21.2 °F 14.9 °F 21.2 °F 100% 30.39 in 10.0 mi East 4.6 mph - N/A   Clear
7:35 AM 22.8 °F 15.5 °F 22.8 °F 100% 30.39 in 10.0 mi ESE 5.8 mph - N/A   Clear
7:55 AM 24.6 °F 18.8 °F 23.7 °F 96% 30.39 in 10.0 mi SE 4.6 mph - N/A   Clear
8:15 AM 25.2 °F 17.3 °F 23.7 °F 94% 30.39 in 10.0 mi SE 6.9 mph - N/A   Clear
8:35 AM 25.5 °F 18.7 °F 23.9 °F 94% 30.39 in 10.0 mi SE 5.8 mph - N/A   Clear
8:55 AM 27.5 °F 21.1 °F 25.3 °F 92% 30.39 in 10.0 mi SE 5.8 mph - N/A   Clear
9:15 AM 28.8 °F 21.7 °F 25.7 °F 88% 30.38 in 10.0 mi SE 6.9 mph - N/A   Clear
9:35 AM 29.3 °F 20.8 °F 26.1 °F 88% 30.37 in 10.0 mi SE 9.2 mph - N/A   Clear
9:55 AM 30.7 °F 23.3 °F 26.6 °F 85% 30.37 in 10.0 mi SSE 8.1 mph - N/A   Clear
10:15 AM 31.8 °F 23.3 °F 26.8 °F 82% 30.36 in 10.0 mi SSE 10.4 mph - N/A   Scattered Clouds
10:35 AM 32.7 °F 23.9 °F 27.1 °F 80% 30.35 in 10.0 mi SSE 11.5 mph - N/A   Overcast
10:55 AM 33.4 °F 24.3 °F 27.3 °F 78% 30.35 in 10.0 mi SE 12.7 mph 18.4 mph N/A   Overcast
11:15 AM 33.6 °F 25.6 °F 27.5 °F 78% 30.34 in 10.0 mi SSE 10.4 mph 16.1 mph N/A   Overcast
11:35 AM 34.9 °F 26.2 °F 27.7 °F 75% 30.32 in 10.0 mi South 12.7 mph 20.7 mph N/A   Scattered Clouds
11:55 AM 34.0 °F 26.0 °F 27.1 °F 76% 30.31 in 10.0 mi SSE 10.4 mph 16.1 mph N/A   Clear
12:15 PM 34.7 °F 26.4 °F 26.6 °F 72% 30.30 in 10.0 mi SSE 11.5 mph 17.3 mph N/A   Clear
12:35 PM 35.8 °F 28.8 °F 27.1 °F 71% 30.28 in 10.0 mi SSE 9.2 mph - N/A   Clear
12:55 PM 35.8 °F 27.8 °F 26.6 °F 69% 30.28 in 10.0 mi SSE 11.5 mph - N/A   Clear
1:15 PM 35.8 °F 28.3 °F 26.6 °F 69% 30.27 in 10.0 mi SE 10.4 mph - N/A   Scattered Clouds
1:35 PM 36.3 °F 30.1 °F 26.4 °F 67% 30.27 in 10.0 mi South 8.1 mph - N/A   Scattered Clouds
1:55 PM 36.5 °F 31.0 °F 26.6 °F 67% 30.25 in 10.0 mi South 6.9 mph - N/A   Clear
2:15 PM 36.1 °F 29.9 °F 26.6 °F 68% 30.25 in 10.0 mi SSE 8.1 mph - N/A   Clear
2:35 PM 36.5 °F 29.7 °F 27.0 °F 68% 30.23 in 10.0 mi SE 9.2 mph - N/A   Clear
2:55 PM 35.6 °F 29.2 °F 27.1 °F 71% 30.22 in 10.0 mi SE 8.1 mph - N/A   Clear
3:15 PM 35.6 °F 29.9 °F 27.5 °F 72% 30.22 in 10.0 mi SE 6.9 mph - N/A   Clear
3:35 PM 35.2 °F 28.8 °F 27.5 °F 73% 30.22 in 10.0 mi SE 8.1 mph - N/A   Clear
3:55 PM 35.2 °F 28.8 °F 27.1 °F 72% 30.22 in 10.0 mi SE 8.1 mph - N/A   Clear
4:15 PM 34.0 °F 27.2 °F 27.1 °F 76% 30.21 in 10.0 mi SSE 8.1 mph - N/A   Clear
4:35 PM 33.3 °F 25.7 °F 26.8 °F 77% 30.20 in 10.0 mi SE 9.2 mph - N/A   Clear
4:55 PM 33.3 °F 26.4 °F 26.6 °F 77% 30.19 in 10.0 mi SE 8.1 mph - N/A   Clear
5:15 PM 33.1 °F 26.9 °F 26.8 °F 78% 30.19 in 10.0 mi SE 6.9 mph - N/A   Clear
5:35 PM 32.9 °F 26.7 °F 27.1 °F 79% 30.19 in 10.0 mi ESE 6.9 mph - N/A   Clear
5:55 PM 32.9 °F 26.7 °F 27.3 °F 80% 30.19 in 10.0 mi SE 6.9 mph - N/A   Clear
6:15 PM 32.9 °F 25.9 °F 27.5 °F 81% 30.18 in 10.0 mi SE 8.1 mph - N/A   Clear
6:35 PM 32.9 °F 26.7 °F 27.3 °F 80% 30.18 in 10.0 mi SSE 6.9 mph - N/A   Clear
6:55 PM 32.2 °F 26.7 °F 27.3 °F 82% 30.18 in 10.0 mi SE 5.8 mph - N/A   Clear
7:15 PM 32.2 °F 26.7 °F 27.3 °F 82% 30.18 in 10.0 mi SSE 5.8 mph - N/A   Mostly Cloudy
7:35 PM 32.2 °F 25.8 °F 27.5 °F 83% 30.17 in 10.0 mi SE 6.9 mph - N/A   Scattered Clouds
7:55 PM 32.0 °F 24.2 °F 27.5 °F 83% 30.16 in 10.0 mi SE 9.2 mph - N/A   Clear
8:15 PM 32.0 °F 24.8 °F 27.3 °F 83% 30.16 in 10.0 mi SSE 8.1 mph - N/A   Clear
8:35 PM 32.0 °F 25.6 °F 27.3 °F 83% 30.16 in 10.0 mi SSE 6.9 mph - N/A   Clear
8:55 PM 32.0 °F 25.6 °F 27.1 °F 82% 30.16 in 10.0 mi SSE 6.9 mph - N/A   Clear
9:15 PM 31.6 °F 25.1 °F 27.1 °F 83% 30.15 in 10.0 mi SSE 6.9 mph - N/A   Clear
9:35 PM 31.6 °F 24.4 °F 27.0 °F 83% 30.15 in 10.0 mi SSE 8.1 mph - N/A   Clear
9:55 PM 31.6 °F 26.0 °F 26.6 °F 82% 30.15 in 10.0 mi SSE 5.8 mph - N/A   Clear
10:15 PM 31.6 °F 23.7 °F 26.4 °F 81% 30.14 in 10.0 mi SSE 9.2 mph - N/A   Clear
10:35 PM 31.8 °F 23.9 °F 25.7 °F 78% 30.13 in 10.0 mi SSE 9.2 mph - N/A   Clear
10:55 PM 31.8 °F 23.9 °F 25.2 °F 76% 30.13 in 10.0 mi South 9.2 mph - N/A   Scattered Clouds
11:15 PM 31.8 °F 24.6 °F 24.8 °F 75% 30.13 in 10.0 mi SSE 8.1 mph - N/A   Scattered Clouds
11:35 PM 31.5 °F 24.9 °F 24.8 °F 76% 30.13 in 10.0 mi South 6.9 mph - N/A   Clear
11:55 PM 31.5 °F 23.5 °F 25.2 °F 78% 30.12 in 10.0 mi SSE 9.2 mph - N/A   Clear